"Datum/tijd (MET/MEZT)";"geleidelijkheid [0.01 S/m]";"watertemperatuur [grd C]";"zoutgehalte [mg C/l]"
2024-03-12 06:00;28;8.6;44
2024-03-12 06:10;28;8.6;44
2024-03-12 06:20;28;8.6;44
2024-03-12 06:30;28;8.6;44
2024-03-12 06:40;28;8.6;44
2024-03-12 06:50;28;8.6;44
2024-03-12 07:00;28;8.6;44
2024-03-12 07:10;28;8.6;44
2024-03-12 07:20;28;8.6;44
2024-03-12 07:30;28;8.6;44
2024-03-12 07:40;28;8.6;44
2024-03-12 07:50;28;8.6;44
2024-03-12 08:00;28;8.6;44
2024-03-12 08:10;28;8.6;44
2024-03-12 08:20;28;8.6;44
2024-03-12 08:30;28;8.6;44
2024-03-12 08:40;28;8.6;44
2024-03-12 08:50;28;8.6;44
2024-03-12 09:00;28;8.6;44
2024-03-12 09:10;28;8.6;44
2024-03-12 09:20;28;8.6;44
2024-03-12 09:30;28;8.6;44
2024-03-12 09:40;28;8.6;44
2024-03-12 09:50;28;8.6;44
2024-03-12 10:00;28;8.6;44
2024-03-12 10:10;28;8.6;44
2024-03-12 10:20;28;8.6;44
2024-03-12 10:30;28;8.6;44
2024-03-12 10:40;28;8.6;44
2024-03-12 10:50;28;8.6;44
2024-03-12 11:00;28;8.6;44
2024-03-12 11:10;28;8.6;44
2024-03-12 11:20;28;8.6;44
2024-03-12 11:30;28;8.6;44
2024-03-12 11:40;28;8.6;44
2024-03-12 11:50;28;8.6;44
2024-03-12 12:00;28;8.6;44
2024-03-12 12:10;28;8.6;44
2024-03-12 12:20;29;8.6;47
2024-03-12 12:30;29;8.6;47
2024-03-12 12:40;29;8.6;47
2024-03-12 12:50;29;8.6;47
2024-03-12 13:00;29;8.6;47
2024-03-12 13:10;29;8.6;47
2024-03-12 13:20;29;8.6;47
2024-03-12 13:30;29;8.6;47
2024-03-12 13:40;29;8.6;47
2024-03-12 13:50;29;8.6;47
2024-03-12 14:00;29;8.6;47
2024-03-12 14:10;29;8.6;47
2024-03-12 14:20;29;8.6;47
2024-03-12 14:30;29;8.6;47
2024-03-12 14:40;29;8.6;47
2024-03-12 14:50;29;8.6;47
2024-03-12 15:00;29;8.6;47
2024-03-12 15:10;29;8.6;47
2024-03-12 15:20;29;8.6;47
2024-03-12 15:30;29;8.6;47
2024-03-12 15:40;29;8.6;47
2024-03-12 15:50;29;8.6;47
2024-03-12 16:00;29;8.6;47
2024-03-12 16:10;29;8.6;47
2024-03-12 16:20;29;8.6;47
2024-03-12 16:30;29;8.6;47
2024-03-12 16:40;29;8.6;47
2024-03-12 16:50;29;8.6;47
2024-03-12 17:00;29;8.6;47
2024-03-12 17:10;29;8.6;47
2024-03-12 17:20;29;8.6;47
2024-03-12 17:30;29;8.6;47
2024-03-12 17:40;29;8.6;47
2024-03-12 17:50;29;8.6;47
2024-03-12 18:00;29;8.6;47
2024-03-12 18:10;29;8.6;47
2024-03-12 18:20;29;8.6;47
2024-03-12 18:30;29;8.6;47
2024-03-12 18:40;29;8.6;47
2024-03-12 18:50;29;8.7;47
2024-03-12 19:00;29;8.7;47
2024-03-12 19:10;29;8.7;47
2024-03-12 19:20;29;8.7;47
2024-03-12 19:30;29;8.7;47
2024-03-12 19:40;29;8.7;47
2024-03-12 19:50;29;8.7;47
2024-03-12 20:00;29;8.7;47
2024-03-12 20:10;29;8.7;47
2024-03-12 20:20;29;8.7;47
2024-03-12 20:30;29;8.7;47
2024-03-12 20:40;29;8.7;47
2024-03-12 20:50;29;8.7;47
2024-03-12 21:00;29;8.7;47
2024-03-12 21:10;29;8.7;47
2024-03-12 21:20;29;8.7;47
2024-03-12 21:30;29;8.7;47
2024-03-12 21:40;29;8.7;47
2024-03-12 21:50;29;8.7;47
2024-03-12 22:00;29;8.7;47
2024-03-12 22:10;29;8.7;47
2024-03-12 22:20;29;8.7;47
2024-03-12 22:30;29;8.7;47
2024-03-12 22:40;29;8.7;47
2024-03-12 22:50;29;8.7;47
2024-03-12 23:00;29;8.7;47
2024-03-12 23:10;29;8.7;47
2024-03-12 23:20;29;8.7;47
2024-03-12 23:30;29;8.7;47
2024-03-12 23:40;29;8.7;47
2024-03-12 23:50;29;8.7;47
2024-03-13 00:00;29;8.7;47
2024-03-13 00:10;29;8.7;47
2024-03-13 00:20;29;8.7;47
2024-03-13 00:30;29;8.7;47
2024-03-13 00:40;29;8.7;47
2024-03-13 00:50;29;8.7;47
2024-03-13 01:00;29;8.7;47
2024-03-13 01:10;29;8.7;47
2024-03-13 01:20;29;8.7;47
2024-03-13 01:30;29;8.7;47
2024-03-13 01:40;29;8.7;47
2024-03-13 01:50;29;8.7;47
2024-03-13 02:00;29;8.7;47
2024-03-13 02:10;29;8.7;47
2024-03-13 02:20;29;8.7;47
2024-03-13 02:30;29;8.7;47
2024-03-13 02:40;29;8.7;47
2024-03-13 02:50;29;8.7;47
2024-03-13 03:00;29;8.7;47
2024-03-13 03:10;29;8.7;47
2024-03-13 03:20;29;8.7;47
2024-03-13 03:30;29;8.7;47
2024-03-13 03:40;29;8.7;47
2024-03-13 03:50;29;8.7;47
2024-03-13 04:00;29;8.7;47
2024-03-13 04:10;29;8.7;47
2024-03-13 04:20;29;8.7;47
2024-03-13 04:30;29;8.7;47
2024-03-13 04:40;29;8.7;47
2024-03-13 04:50;29;8.7;47
2024-03-13 05:00;29;8.7;47
2024-03-13 05:10;29;8.7;47
2024-03-13 05:20;29;8.7;47
2024-03-13 05:30;29;8.7;47
2024-03-13 05:40;29;8.7;47
2024-03-13 05:50;29;8.7;47
2024-03-13 06:00;29;8.7;47
2024-03-13 06:10;29;8.7;47
2024-03-13 06:20;29;8.7;47
2024-03-13 06:30;29;8.7;47
2024-03-13 06:40;29;8.7;47
2024-03-13 06:50;29;8.7;47
2024-03-13 07:00;29;8.7;47
2024-03-13 07:10;29;8.7;47
2024-03-13 07:20;29;8.7;47
2024-03-13 07:30;29;8.7;47
2024-03-13 07:40;29;8.7;47
2024-03-13 07:50;29;8.7;47
2024-03-13 08:00;29;8.7;47
2024-03-13 08:10;29;8.7;47
2024-03-13 08:20;29;8.7;47
2024-03-13 08:30;29;8.7;47
2024-03-13 08:40;29;8.7;47
2024-03-13 08:50;29;8.7;47
2024-03-13 09:00;29;8.7;47
2024-03-13 09:10;29;8.7;47
2024-03-13 09:20;29;8.7;47
2024-03-13 09:30;29;8.7;47
2024-03-13 09:40;29;8.8;46
2024-03-13 09:50;29;8.8;46
2024-03-13 10:00;29;8.8;46
2024-03-13 10:10;29;8.8;46
2024-03-13 10:20;29;8.8;46
2024-03-13 10:30;29;8.8;46
2024-03-13 10:40;29;8.8;46
2024-03-13 10:50;29;8.8;46
2024-03-13 11:00;29;8.8;46
2024-03-13 11:10;29;8.8;46
2024-03-13 11:20;29;8.8;46
2024-03-13 11:30;29;8.8;46
2024-03-13 11:40;29;8.8;46
2024-03-13 11:50;29;8.8;46
2024-03-13 12:00;29;8.8;46
2024-03-13 12:10;29;8.8;46
2024-03-13 12:20;29;8.8;46
2024-03-13 12:30;29;8.8;46
2024-03-13 12:40;29;8.8;46
2024-03-13 12:50;29;8.8;46
2024-03-13 13:00;29;8.8;46
2024-03-13 13:10;29;8.8;46
2024-03-13 13:20;29;8.8;46
2024-03-13 13:30;29;8.8;46
2024-03-13 13:40;29;8.8;46
2024-03-13 13:50;29;8.8;46
2024-03-13 14:00;29;8.8;46
2024-03-13 14:10;29;8.8;46
2024-03-13 14:20;29;8.8;46
2024-03-13 14:30;29;8.8;46
2024-03-13 14:40;29;8.8;46
2024-03-13 14:50;29;8.8;46
2024-03-13 15:00;29;8.8;46
2024-03-13 15:10;29;8.8;46
2024-03-13 15:20;29;8.8;46
2024-03-13 15:30;29;8.8;46
2024-03-13 15:40;29;8.8;46
2024-03-13 15:50;29;8.8;46
2024-03-13 16:00;29;8.8;46
2024-03-13 16:10;29;8.9;46
2024-03-13 16:20;29;8.8;46
2024-03-13 16:30;29;8.9;46
2024-03-13 16:40;29;8.9;46
2024-03-13 16:50;29;8.8;46
2024-03-13 17:00;29;8.8;46
2024-03-13 17:10;29;8.8;46
2024-03-13 17:20;29;8.8;46
2024-03-13 17:30;29;8.8;46
2024-03-13 17:40;29;8.8;46
2024-03-13 17:50;29;8.8;46
2024-03-13 18:00;29;8.8;46
2024-03-13 18:10;29;8.9;46
2024-03-13 18:20;29;8.9;46
2024-03-13 18:30;29;8.9;46
2024-03-13 18:40;29;8.9;46
2024-03-13 18:50;29;8.9;46
2024-03-13 19:00;29;8.9;46
2024-03-13 19:10;29;8.9;46
2024-03-13 19:20;29;8.9;46
2024-03-13 19:30;29;8.9;46
2024-03-13 19:40;29;8.9;46
2024-03-13 19:50;29;8.9;46
2024-03-13 20:00;29;8.8;46
2024-03-13 20:10;29;8.8;46
2024-03-13 20:20;29;8.8;46
2024-03-13 20:30;29;8.8;46
2024-03-13 20:40;29;8.8;46
2024-03-13 20:50;29;8.8;46
2024-03-13 21:00;29;8.8;46
2024-03-13 21:10;29;8.9;46
2024-03-13 21:20;29;8.9;46
2024-03-13 21:30;29;8.9;46
2024-03-13 21:40;29;8.9;46
2024-03-13 21:50;29;8.9;46
2024-03-13 22:00;29;8.9;46
2024-03-13 22:10;29;8.9;46
2024-03-13 22:20;29;8.9;46
2024-03-13 22:30;29;8.9;46
2024-03-13 22:40;29;8.9;46
2024-03-13 22:50;29;8.9;46
2024-03-13 23:00;29;8.9;46
2024-03-13 23:10;29;8.9;46
2024-03-13 23:20;29;8.9;46
2024-03-13 23:30;29;8.9;46
2024-03-13 23:40;29;8.9;46
2024-03-13 23:50;29;8.9;46
2024-03-14 00:00;29;8.9;46
2024-03-14 00:10;29;8.9;46
2024-03-14 00:20;29;8.9;46
2024-03-14 00:30;29;8.9;46
2024-03-14 00:40;29;8.9;46
2024-03-14 00:50;29;8.9;46
2024-03-14 01:00;29;8.9;46
2024-03-14 01:10;29;8.9;46
2024-03-14 01:20;29;8.9;46
2024-03-14 01:30;29;8.9;46
2024-03-14 01:40;29;8.9;46
2024-03-14 01:50;29;8.9;46
2024-03-14 02:00;29;8.9;46
2024-03-14 02:10;29;8.9;46
2024-03-14 02:20;29;8.9;46
2024-03-14 02:30;29;8.9;46
2024-03-14 02:40;29;8.9;46
2024-03-14 02:50;29;8.9;46
2024-03-14 03:00;29;8.9;46
2024-03-14 03:10;29;8.9;46
2024-03-14 03:20;29;8.9;46
2024-03-14 03:30;29;8.9;46
2024-03-14 03:40;29;8.9;46
2024-03-14 03:50;29;8.9;46
2024-03-14 04:00;29;8.9;46
2024-03-14 04:10;29;8.9;46
2024-03-14 04:20;29;8.9;46
2024-03-14 04:30;29;8.9;46
2024-03-14 04:40;29;8.9;46
2024-03-14 04:50;29;8.9;46
2024-03-14 05:00;29;8.9;46
2024-03-14 05:10;29;8.9;46
2024-03-14 05:20;29;8.9;46
2024-03-14 05:30;29;8.9;46
2024-03-14 05:40;29;8.9;46
2024-03-14 05:50;29;8.9;46
2024-03-14 06:00;29;8.9;46
2024-03-14 06:10;29;8.9;46
2024-03-14 06:20;29;8.9;46
2024-03-14 06:30;29;8.9;46
2024-03-14 06:40;29;8.9;46
2024-03-14 06:50;29;8.9;46
2024-03-14 07:00;29;8.9;46
2024-03-14 07:10;29;8.9;46
2024-03-14 07:20;29;8.9;46
2024-03-14 07:30;29;8.9;46
2024-03-14 07:40;29;8.9;46
2024-03-14 07:50;29;8.9;46
2024-03-14 08:00;29;8.9;46
2024-03-14 08:10;29;8.9;46
2024-03-14 08:20;29;8.9;46
2024-03-14 08:30;29;8.9;46
2024-03-14 08:40;29;8.9;46
2024-03-14 08:50;29;8.9;46
2024-03-14 09:00;29;8.9;46
2024-03-14 09:10;29;8.9;46
2024-03-14 09:20;29;8.9;46
2024-03-14 09:30;29;8.9;46
2024-03-14 09:40;29;8.9;46
2024-03-14 09:50;29;8.9;46
2024-03-14 10:00;29;8.9;46
2024-03-14 10:10;29;8.9;46
2024-03-14 10:20;29;8.9;46
2024-03-14 10:30;29;8.9;46
2024-03-14 10:40;29;8.9;46
2024-03-14 10:50;29;8.9;46
2024-03-14 11:00;29;8.9;46
2024-03-14 11:10;29;8.9;46
2024-03-14 11:20;29;8.9;46
2024-03-14 11:30;29;8.9;46
2024-03-14 11:40;29;8.9;46
2024-03-14 11:50;29;8.9;46
2024-03-14 12:00;29;8.9;46
2024-03-14 12:10;29;9;46
2024-03-14 12:20;29;9;46
2024-03-14 12:30;29;9;46
2024-03-14 12:40;29;9;46
2024-03-14 12:50;29;9;46
2024-03-14 13:00;29;9;46
2024-03-14 13:10;29;9;46
2024-03-14 13:20;29;9;46
2024-03-14 13:30;30;9;49
2024-03-14 13:40;30;9;49
2024-03-14 13:50;30;9;49
2024-03-14 14:00;30;9;49
2024-03-14 14:10;30;9;49
2024-03-14 14:20;30;9;49
2024-03-14 14:30;30;9;49
2024-03-14 14:40;30;9;49
2024-03-14 14:50;30;9;49
2024-03-14 15:00;30;9;49
2024-03-14 15:10;30;9;49
2024-03-14 15:20;30;9.1;48
2024-03-14 15:30;30;9.1;48
2024-03-14 15:40;30;9.1;48
2024-03-14 15:50;29;9.1;46
2024-03-14 16:00;29;9.1;46
2024-03-14 16:10;29;9.1;46
2024-03-14 16:20;29;9.1;46
2024-03-14 16:30;29;9.1;46
2024-03-14 16:40;29;9.1;46
2024-03-14 16:50;29;9.1;46
2024-03-14 17:00;29;9.1;46
2024-03-14 17:10;29;9.1;46
2024-03-14 17:20;29;9.1;46
2024-03-14 17:30;29;9.1;46
2024-03-14 17:40;29;9.1;46
2024-03-14 17:50;29;9.1;46
2024-03-14 18:00;29;9.1;46
2024-03-14 18:10;29;9.1;46
2024-03-14 18:20;29;9.1;46
2024-03-14 18:30;29;9.1;46
2024-03-14 18:40;29;9.1;46
2024-03-14 18:50;29;9.1;46
2024-03-14 19:00;29;9.2;46
2024-03-14 19:10;29;9.2;46
2024-03-14 19:20;29;9.1;46
2024-03-14 19:30;29;9.1;46
2024-03-14 19:40;29;9.1;46
2024-03-14 19:50;29;9.1;46
2024-03-14 20:00;29;9.1;46
2024-03-14 20:10;29;9.1;46
2024-03-14 20:20;29;9.1;46
2024-03-14 20:30;29;9.1;46
2024-03-14 20:40;29;9.2;46
2024-03-14 20:50;29;9.2;46
2024-03-14 21:00;29;9.2;46
2024-03-14 21:10;29;9.2;46
2024-03-14 21:20;29;9.2;46
2024-03-14 21:30;29;9.2;46
2024-03-14 21:40;29;9.2;46
2024-03-14 21:50;29;9.2;46
2024-03-14 22:00;29;9.2;46
2024-03-14 22:10;29;9.2;46
2024-03-14 22:20;29;9.2;46
2024-03-14 22:30;29;9.2;46
2024-03-14 22:40;29;9.2;46
2024-03-14 22:50;29;9.2;46
2024-03-14 23:00;29;9.2;46
2024-03-14 23:10;29;9.2;46
2024-03-14 23:20;29;9.2;46
2024-03-14 23:30;29;9.2;46
2024-03-14 23:40;29;9.2;46
2024-03-14 23:50;29;9.2;46
2024-03-15 00:00;29;9.2;46
2024-03-15 00:10;30;9.2;48
2024-03-15 00:20;30;9.2;48
2024-03-15 00:30;30;9.2;48
2024-03-15 00:40;30;9.2;48
2024-03-15 00:50;30;9.2;48
2024-03-15 01:00;30;9.2;48
2024-03-15 01:10;30;9.2;48
2024-03-15 01:20;30;9.2;48
2024-03-15 01:30;30;9.2;48
2024-03-15 01:40;30;9.2;48
2024-03-15 01:50;30;9.2;48
2024-03-15 02:00;30;9.2;48
2024-03-15 02:10;30;9.2;48
2024-03-15 02:20;30;9.2;48
2024-03-15 02:30;30;9.2;48
2024-03-15 02:40;30;9.2;48
2024-03-15 02:50;30;9.2;48
2024-03-15 03:00;30;9.2;48
2024-03-15 03:10;30;9.2;48
2024-03-15 03:20;30;9.2;48
2024-03-15 03:30;30;9.2;48
2024-03-15 03:40;30;9.2;48
2024-03-15 03:50;30;9.2;48
2024-03-15 04:00;30;9.2;48
2024-03-15 04:10;30;9.2;48
2024-03-15 04:20;30;9.2;48
2024-03-15 04:30;30;9.2;48
2024-03-15 04:40;30;9.2;48
2024-03-15 04:50;30;9.2;48
2024-03-15 05:00;30;9.2;48
2024-03-15 05:10;30;9.2;48
2024-03-15 05:20;30;9.2;48
2024-03-15 05:30;30;9.2;48
2024-03-15 05:40;30;9.2;48
2024-03-15 05:50;30;9.2;48
2024-03-15 06:00;30;9.2;48
2024-03-15 06:10;30;9.2;48
2024-03-15 06:20;30;9.2;48
2024-03-15 06:30;30;9.2;48
2024-03-15 06:40;30;9.2;48
2024-03-15 06:50;30;9.2;48
2024-03-15 07:00;30;9.2;48
2024-03-15 07:10;30;9.2;48
2024-03-15 07:20;30;9.2;48
2024-03-15 07:30;30;9.2;48
2024-03-15 07:40;30;9.2;48
2024-03-15 07:50;30;9.2;48
2024-03-15 08:00;30;9.2;48
2024-03-15 08:10;30;9.2;48
2024-03-15 08:20;30;9.2;48
2024-03-15 08:30;30;9.2;48
2024-03-15 08:40;30;9.2;48
2024-03-15 08:50;30;9.2;48
2024-03-15 09:00;30;9.2;48
2024-03-15 09:10;30;9.2;48
2024-03-15 09:20;30;9.2;48
2024-03-15 09:30;30;9.2;48
2024-03-15 09:40;30;9.2;48
2024-03-15 09:50;30;9.2;48
2024-03-15 10:00;30;9.2;48
2024-03-15 10:10;30;9.2;48
2024-03-15 10:20;30;9.3;48
2024-03-15 10:30;30;9.3;48
2024-03-15 10:40;30;9.3;48
2024-03-15 10:50;30;9.2;48
2024-03-15 11:00;30;9.2;48
2024-03-15 11:10;30;9.2;48
2024-03-15 11:20;30;9.2;48
2024-03-15 11:30;30;9.2;48
2024-03-15 11:40;30;9.2;48
2024-03-15 11:50;30;9.2;48
2024-03-15 12:00;30;9.2;48
2024-03-15 12:10;30;9.2;48
2024-03-15 12:20;30;9.2;48
2024-03-15 12:30;30;9.3;48
2024-03-15 12:40;30;9.3;48
2024-03-15 12:50;30;9.3;48
2024-03-15 13:00;30;9.3;48
2024-03-15 13:10;30;9.3;48
2024-03-15 13:20;30;9.3;48
2024-03-15 13:30;30;9.3;48
2024-03-15 13:40;30;9.3;48
2024-03-15 13:50;30;9.4;48
2024-03-15 14:00;30;9.4;48
2024-03-15 14:10;30;9.3;48
2024-03-15 14:20;30;9.4;48
2024-03-15 14:30;30;9.4;48
2024-03-15 14:40;30;9.4;48
2024-03-15 14:50;31;9.4;50
2024-03-15 15:00;31;9.4;50
2024-03-15 15:10;31;9.4;50
2024-03-15 15:20;31;9.4;50
2024-03-15 15:30;31;9.4;50
2024-03-15 15:40;31;9.4;50
2024-03-15 15:50;31;9.4;50
2024-03-15 16:00;31;9.4;50
2024-03-15 16:10;31;9.4;50
2024-03-15 16:20;31;9.4;50
2024-03-15 16:30;31;9.4;50
2024-03-15 16:40;31;9.4;50
2024-03-15 16:50;31;9.4;50
2024-03-15 17:00;31;9.4;50
2024-03-15 17:10;31;9.4;50
2024-03-15 17:20;31;9.4;50
2024-03-15 17:30;31;9.4;50
2024-03-15 17:40;31;9.4;50
2024-03-15 17:50;31;9.4;50
2024-03-15 18:00;31;9.4;50
2024-03-15 18:10;31;9.4;50
2024-03-15 18:20;31;9.4;50
2024-03-15 18:30;31;9.4;50
2024-03-15 18:40;31;9.4;50
2024-03-15 18:50;31;9.4;50
2024-03-15 19:00;31;9.4;50
2024-03-15 19:10;31;9.4;50
2024-03-15 19:20;31;9.4;50
2024-03-15 19:30;31;9.4;50
2024-03-15 19:40;31;9.4;50
2024-03-15 19:50;31;9.4;50
2024-03-15 20:00;31;9.4;50
2024-03-15 20:10;31;9.4;50
2024-03-15 20:20;31;9.4;50
2024-03-15 20:30;31;9.4;50
2024-03-15 20:40;31;9.4;50
2024-03-15 20:50;31;9.4;50
2024-03-15 21:00;31;9.5;50
2024-03-15 21:10;31;9.5;50
2024-03-15 21:20;31;9.5;50
2024-03-15 21:30;31;9.5;50
2024-03-15 21:40;31;9.4;50
2024-03-15 21:50;31;9.5;50
2024-03-15 22:00;31;9.5;50
2024-03-15 22:10;31;9.4;50
2024-03-15 22:20;31;9.4;50
2024-03-15 22:30;31;9.4;50
2024-03-15 22:40;31;9.4;50
2024-03-15 22:50;31;9.4;50
2024-03-15 23:00;31;9.4;50
2024-03-15 23:10;31;9.5;50
2024-03-15 23:20;31;9.5;50
2024-03-15 23:30;31;9.5;50
2024-03-15 23:40;31;9.5;50
2024-03-15 23:50;31;9.5;50
2024-03-16 00:00;31;9.5;50
2024-03-16 00:10;31;9.5;50
2024-03-16 00:20;31;9.5;50
2024-03-16 00:30;31;9.5;50
2024-03-16 00:40;31;9.5;50
2024-03-16 00:50;31;9.5;50
2024-03-16 01:00;31;9.5;50
2024-03-16 01:10;31;9.5;50
2024-03-16 01:20;31;9.5;50
2024-03-16 01:30;31;9.5;50
2024-03-16 01:40;31;9.5;50
2024-03-16 01:50;31;9.5;50
2024-03-16 02:00;31;9.5;50
2024-03-16 02:10;31;9.5;50
2024-03-16 02:20;31;9.5;50
2024-03-16 02:30;31;9.5;50
2024-03-16 02:40;31;9.6;50
2024-03-16 02:50;31;9.6;50
2024-03-16 03:00;31;9.7;50
2024-03-16 03:10;31;9.7;50
2024-03-16 03:20;31;9.7;50
2024-03-16 03:30;31;9.7;50
2024-03-16 03:40;31;9.7;50
2024-03-16 03:50;31;9.7;50
2024-03-16 04:00;31;9.7;50
2024-03-16 04:10;31;9.7;50
2024-03-16 04:20;31;9.7;50
2024-03-16 04:30;31;9.7;50
2024-03-16 04:40;31;9.6;50
2024-03-16 04:50;31;9.6;50
2024-03-16 05:00;31;9.6;50
2024-03-16 05:10;31;9.6;50
2024-03-16 05:20;31;9.6;50
2024-03-16 05:30;31;9.6;50
2024-03-16 05:40;31;9.6;50
2024-03-16 05:50;31;9.6;50
2024-03-16 06:00;31;9.6;50
2024-03-16 06:10;31;9.6;50
2024-03-16 06:20;31;9.6;50
2024-03-16 06:30;31;9.6;50
2024-03-16 06:40;31;9.6;50
2024-03-16 06:50;31;9.6;50
2024-03-16 07:00;31;9.6;50
2024-03-16 07:10;31;9.6;50
2024-03-16 07:20;31;9.6;50
2024-03-16 07:30;31;9.6;50
2024-03-16 07:40;31;9.6;50
2024-03-16 07:50;31;9.6;50
2024-03-16 08:00;31;9.5;50
2024-03-16 08:10;31;9.5;50
2024-03-16 08:20;31;9.5;50
2024-03-16 08:30;31;9.5;50
2024-03-16 08:40;31;9.5;50
2024-03-16 08:50;31;9.5;50
2024-03-16 09:00;31;9.5;50
2024-03-16 09:10;31;9.5;50
2024-03-16 09:20;31;9.5;50
2024-03-16 09:30;31;9.5;50
2024-03-16 09:40;31;9.5;50
2024-03-16 09:50;31;9.5;50
2024-03-16 10:00;31;9.5;50
2024-03-16 10:10;31;9.5;50
2024-03-16 10:20;31;9.5;50
2024-03-16 10:30;31;9.5;50
2024-03-16 10:40;31;9.5;50
2024-03-16 10:50;31;9.5;50
2024-03-16 11:00;31;9.4;50
2024-03-16 11:10;31;9.4;50
2024-03-16 11:20;31;9.4;50
2024-03-16 11:30;32;9.5;53
2024-03-16 11:40;32;9.5;53
2024-03-16 11:50;32;9.5;53
2024-03-16 12:00;32;9.5;53
2024-03-16 12:10;32;9.5;53
2024-03-16 12:20;32;9.5;53
2024-03-16 12:30;32;9.5;53
2024-03-16 12:40;32;9.5;53
2024-03-16 12:50;32;9.5;53
2024-03-16 13:00;32;9.5;53
2024-03-16 13:10;32;9.5;53
2024-03-16 13:20;32;9.5;53
2024-03-16 13:30;32;9.5;53
2024-03-16 13:40;32;9.5;53
2024-03-16 13:50;32;9.6;53
2024-03-16 14:00;32;9.6;53
2024-03-16 14:10;32;9.5;53
2024-03-16 14:20;32;9.5;53
2024-03-16 14:30;32;9.5;53
2024-03-16 14:40;32;9.5;53
2024-03-16 14:50;32;9.5;53
2024-03-16 15:00;32;9.5;53
2024-03-16 15:10;32;9.5;53
2024-03-16 15:20;31;9.5;50
2024-03-16 15:30;31;9.5;50
2024-03-16 15:40;31;9.5;50
2024-03-16 15:50;31;9.6;50
2024-03-16 16:00;31;9.6;50
2024-03-16 16:10;31;9.6;50
2024-03-16 16:20;31;9.6;50
2024-03-16 16:30;31;9.5;50
2024-03-16 16:40;31;9.5;50
2024-03-16 16:50;31;9.5;50
2024-03-16 17:00;31;9.5;50
2024-03-16 17:10;31;9.5;50
2024-03-16 17:20;31;9.5;50
2024-03-16 17:30;31;9.6;50
2024-03-16 17:40;31;9.6;50
2024-03-16 17:50;31;9.6;50
2024-03-16 18:00;31;9.6;50
2024-03-16 18:10;31;9.6;50
2024-03-16 18:20;31;9.6;50
2024-03-16 18:30;31;9.6;50
2024-03-16 18:40;31;9.6;50
2024-03-16 18:50;31;9.6;50
2024-03-16 19:00;31;9.6;50
2024-03-16 19:10;31;9.6;50
2024-03-16 19:20;31;9.6;50
2024-03-16 19:30;31;9.6;50
2024-03-16 19:40;31;9.6;50
2024-03-16 19:50;31;9.6;50
2024-03-16 20:00;31;9.6;50
2024-03-16 20:10;31;9.6;50
2024-03-16 20:20;31;9.6;50
2024-03-16 20:30;31;9.6;50
2024-03-16 20:40;31;9.5;50
2024-03-16 20:50;31;9.6;50
2024-03-16 21:00;31;9.5;50
2024-03-16 21:10;31;9.6;50
2024-03-16 21:20;31;9.6;50
2024-03-16 21:30;31;9.6;50
2024-03-16 21:40;31;9.6;50
2024-03-16 21:50;31;9.6;50
2024-03-16 22:00;31;9.6;50
2024-03-16 22:10;31;9.6;50
2024-03-16 22:20;31;9.6;50
2024-03-16 22:30;31;9.6;50
2024-03-16 22:40;31;9.6;50
2024-03-16 22:50;31;9.6;50
2024-03-16 23:00;31;9.6;50
2024-03-16 23:10;31;9.6;50
2024-03-16 23:20;31;9.6;50
2024-03-16 23:30;31;9.6;50
2024-03-16 23:40;31;9.6;50
2024-03-16 23:50;31;9.6;50
2024-03-17 00:00;31;9.6;50
2024-03-17 00:10;31;9.6;50
2024-03-17 00:20;31;9.6;50
2024-03-17 00:30;31;9.6;50
2024-03-17 00:40;31;9.6;50
2024-03-17 00:50;31;9.6;50
2024-03-17 01:00;31;9.6;50
2024-03-17 01:10;31;9.5;50
2024-03-17 01:20;31;9.5;50
2024-03-17 01:30;31;9.5;50
2024-03-17 01:40;31;9.5;50
2024-03-17 01:50;31;9.5;50
2024-03-17 02:00;31;9.5;50
2024-03-17 02:10;31;9.5;50
2024-03-17 02:20;31;9.6;50
2024-03-17 02:30;31;9.6;50
2024-03-17 02:40;31;9.6;50
2024-03-17 02:50;31;9.6;50
2024-03-17 03:00;31;9.6;50
2024-03-17 03:10;31;9.6;50
2024-03-17 03:20;31;9.6;50
2024-03-17 03:30;31;9.6;50
2024-03-17 03:40;31;9.6;50
2024-03-17 03:50;31;9.6;50
2024-03-17 04:00;31;9.6;50
2024-03-17 04:10;31;9.6;50
2024-03-17 04:20;31;9.5;50
2024-03-17 04:30;31;9.5;50
2024-03-17 04:40;31;9.5;50
2024-03-17 04:50;31;9.5;50
2024-03-17 05:00;31;9.5;50
2024-03-17 05:10;31;9.5;50
2024-03-17 05:20;31;9.5;50
2024-03-17 05:30;31;9.5;50
2024-03-17 05:40;31;9.5;50
2024-03-17 05:50;31;9.5;50
2024-03-17 06:00;31;9.5;50
2024-03-17 06:10;31;9.5;50
2024-03-17 06:20;31;9.5;50
2024-03-17 06:30;31;9.5;50
2024-03-17 06:40;31;9.5;50
2024-03-17 06:50;31;9.5;50
2024-03-17 07:00;31;9.5;50
2024-03-17 07:10;31;9.5;50
2024-03-17 07:20;31;9.5;50
2024-03-17 07:30;31;9.5;50
2024-03-17 07:40;31;9.5;50
2024-03-17 07:50;31;9.5;50
2024-03-17 08:00;31;9.5;50
2024-03-17 08:10;31;9.5;50
2024-03-17 08:20;31;9.5;50
2024-03-17 08:30;31;9.5;50
2024-03-17 08:40;31;9.5;50
2024-03-17 08:50;31;9.5;50
2024-03-17 09:00;31;9.5;50
2024-03-17 09:10;31;9.6;50
2024-03-17 09:20;31;9.6;50
2024-03-17 09:30;31;9.6;50
2024-03-17 09:40;32;9.6;53
2024-03-17 09:50;32;9.6;53
2024-03-17 10:00;32;9.6;53
2024-03-17 10:10;32;9.6;53
2024-03-17 10:20;32;9.6;53
2024-03-17 10:30;32;9.6;53
2024-03-17 10:40;32;9.5;53
2024-03-17 10:50;32;9.6;53
2024-03-17 11:00;32;9.6;53
2024-03-17 11:10;32;9.6;53
2024-03-17 11:20;32;9.6;53
2024-03-17 11:30;32;9.6;53
2024-03-17 11:40;32;9.6;53
2024-03-17 11:50;32;9.6;53
2024-03-17 12:00;32;9.6;53
2024-03-17 12:10;32;9.6;53
2024-03-17 12:20;32;9.6;53
2024-03-17 12:30;32;9.6;53
2024-03-17 12:40;32;9.6;53
2024-03-17 12:50;32;9.6;53
2024-03-17 13:00;32;9.6;53
2024-03-17 13:10;32;9.6;53
2024-03-17 13:20;32;9.6;53
2024-03-17 13:30;32;9.6;53
2024-03-17 13:40;32;9.6;53
2024-03-17 13:50;32;9.6;53
2024-03-17 14:00;32;9.6;53
2024-03-17 14:10;32;9.6;53
2024-03-17 14:20;32;9.6;53
2024-03-17 14:30;32;9.6;53
2024-03-17 14:40;32;9.6;53
2024-03-17 14:50;32;9.6;53
2024-03-17 15:00;32;9.7;52
2024-03-17 15:10;32;9.6;53
2024-03-17 15:20;32;9.6;53
2024-03-17 15:30;32;9.6;53
2024-03-17 15:40;32;9.6;53
2024-03-17 15:50;32;9.6;53
2024-03-17 16:00;32;9.6;53
2024-03-17 16:10;32;9.6;53
2024-03-17 16:20;32;9.6;53
2024-03-17 16:30;32;9.6;53
2024-03-17 16:40;32;9.6;53
2024-03-17 16:50;32;9.6;53
2024-03-17 17:00;32;9.6;53
2024-03-17 17:10;32;9.6;53
2024-03-17 17:20;32;9.6;53
2024-03-17 17:30;32;9.6;53
2024-03-17 17:40;32;9.6;53
2024-03-17 17:50;32;9.6;53
2024-03-17 18:00;32;9.6;53
2024-03-17 18:10;32;9.6;53
2024-03-17 18:20;32;9.6;53
2024-03-17 18:30;32;9.6;53
2024-03-17 18:40;32;9.6;53
2024-03-17 18:50;32;9.7;52
2024-03-17 19:00;32;9.7;52
2024-03-17 19:10;32;9.7;52
2024-03-17 19:20;32;9.7;52
2024-03-17 19:30;32;9.7;52
2024-03-17 19:40;32;9.7;52
2024-03-17 19:50;32;9.7;52
2024-03-17 20:00;32;9.7;52
2024-03-17 20:10;32;9.7;52
2024-03-17 20:20;32;9.7;52
2024-03-17 20:30;32;9.7;52
2024-03-17 20:40;32;9.7;52
2024-03-17 20:50;32;9.7;52
2024-03-17 21:00;32;9.7;52
2024-03-17 21:10;32;9.7;52
2024-03-17 21:20;32;9.7;52
2024-03-17 21:30;32;9.7;52
2024-03-17 21:40;32;9.7;52
2024-03-17 21:50;32;9.7;52
2024-03-17 22:00;32;9.7;52
2024-03-17 22:10;32;9.7;52
2024-03-17 22:20;32;9.7;52
2024-03-17 22:30;32;9.7;52
2024-03-17 22:40;32;9.7;52
2024-03-17 22:50;32;9.7;52
2024-03-17 23:00;32;9.7;52
2024-03-17 23:10;32;9.7;52
2024-03-17 23:20;32;9.7;52
2024-03-17 23:30;32;9.7;52
2024-03-17 23:40;32;9.7;52
2024-03-17 23:50;32;9.7;52
2024-03-18 00:00;32;9.7;52
2024-03-18 00:10;32;9.7;52
2024-03-18 00:20;32;9.7;52
2024-03-18 00:30;32;9.7;52
2024-03-18 00:40;32;9.7;52
2024-03-18 00:50;32;9.7;52
2024-03-18 01:00;32;9.7;52
2024-03-18 01:10;32;9.7;52
2024-03-18 01:20;32;9.7;52
2024-03-18 01:30;32;9.6;53
2024-03-18 01:40;32;9.6;53
2024-03-18 01:50;32;9.6;53
2024-03-18 02:00;32;9.6;53
2024-03-18 02:10;32;9.6;53
2024-03-18 02:20;32;9.6;53
2024-03-18 02:30;32;9.6;53
2024-03-18 02:40;32;9.6;53
2024-03-18 02:50;32;9.6;53
2024-03-18 03:00;32;9.7;52
2024-03-18 03:10;32;9.7;52
2024-03-18 03:20;32;9.7;52
2024-03-18 03:30;32;9.7;52
2024-03-18 03:40;32;9.7;52
2024-03-18 03:50;32;9.7;52
2024-03-18 04:00;32;9.7;52
2024-03-18 04:10;32;9.7;52